Weather History for Chippewa, MI

Change the Weather History Date:

Saturday, February 11, 2012

  Actual Average Record
Temperature  
Mean Temperature 8 °F -  
Max Temperature 21 °F 26 °F 44 °F (1999)
Min Temperature -5 °F 3 °F -21 °F (1979)
Degree Days  
Heating Degree Days 57    
Moisture  
Dew Point 0 °F    
Average Humidity 75    
Maximum Humidity 86    
Minimum Humidity 66    
Precipitation  
Precipitation 0.00 in - - ()
Sea Level Pressure  
Sea Level Pressure 30.11 in    
Wind  
Wind Speed 8 mph (NW)    
Max Wind Speed 25 mph    
Max Gust Speed 32 mph    
Visibility 9 miles    
Events      
Averages and records for this station are not official NWS values.
T = Trace of Precipitation, MM = Missing Value Source: NWS Daily Summary

Daily Weather History Graph

Daily Weather History Graph

Search for Another Location

Airport:

Trip Planner

Search our weather history database for the weather conditions in past years. The results will help you decide how hot, cold, wet, or windy it might be!

Date:

Astronomy

Feb. 11, 2012 Rise Set
Actual Time 7:47 AM EST 5:57 PM EST
Civil Twilight 7:16 AM EST 6:28 PM EST
Nautical Twilight 6:41 AM EST 7:03 PM EST
Astronomical Twilight 6:06 AM EST 7:38 PM EST
Moon 11:05 PM EST (2/11) 9:10 AM EST (2/11)
Length of Visible Light 11h 11m
Length of Day
10h 09m
Waning Gibbous, 82% of the Moon is Illuminated
Feb 11
Waning Gibbous
Feb 14
Last Quarter
Feb 21
New
Feb 29
First Quarter
Mar 8
Full

Hourly Weather History & Observations

Time (EST) Temp. Windchill Dew Point Humidity Pressure Visibility Wind Dir Wind Speed Gust Speed Precip Events Conditions
12:15 AM -0.4 °F -14.7 °F -5.8 °F 78% 30.15 in 10.0 mi North 8.1 mph - N/A   Clear
12:35 AM -0.4 °F -13.4 °F -5.8 °F 78% 30.16 in 10.0 mi North 6.9 mph - N/A   Clear
12:55 AM -0.4 °F -12.0 °F -5.8 °F 78% 30.16 in 10.0 mi North 5.8 mph - N/A   Clear
1:15 AM -2.2 °F -16.8 °F -7.6 °F 78% 30.16 in 10.0 mi North 8.1 mph - N/A   Clear
1:35 AM -2.2 °F -14.2 °F -7.6 °F 78% 30.16 in 10.0 mi North 5.8 mph - N/A   Clear
1:55 AM -2.2 °F -12.5 °F -7.6 °F 78% 30.16 in 10.0 mi North 4.6 mph - N/A   Clear
2:15 AM -2.2 °F -14.2 °F -7.6 °F 78% 30.16 in 10.0 mi North 5.8 mph - N/A   Clear
2:35 AM -4.0 °F -16.3 °F -9.4 °F 78% 30.17 in 10.0 mi NNW 5.8 mph - N/A   Clear
2:55 AM -4.0 °F -14.6 °F -9.4 °F 78% 30.17 in 10.0 mi North 4.6 mph - N/A   Clear
3:15 AM -4.0 °F -12.4 °F -9.4 °F 78% 30.16 in 10.0 mi North 3.5 mph - N/A   Clear
3:35 AM -5.8 °F -18.4 °F -9.4 °F 84% 30.16 in 10.0 mi North 5.8 mph - N/A   Clear
3:55 AM -5.8 °F -18.4 °F -9.4 °F 84% 30.16 in 10.0 mi North 5.8 mph - N/A   Clear
4:15 AM -5.8 °F -18.4 °F -9.4 °F 84% 30.15 in 10.0 mi NNW 5.8 mph - N/A   Clear
4:35 AM -4.0 °F -12.4 °F -11.2 °F 71% 30.16 in 10.0 mi North 3.5 mph - N/A   Scattered Clouds
4:55 AM -2.2 °F -14.2 °F -11.2 °F 66% 30.16 in 10.0 mi NNE 5.8 mph - N/A   Overcast
5:15 AM -2.2 °F -16.8 °F -11.2 °F 66% 30.15 in 10.0 mi NNE 8.1 mph - N/A   Overcast
5:35 AM -2.2 °F -15.6 °F -9.4 °F 71% 30.15 in 10.0 mi NNE 6.9 mph - N/A   Overcast
5:55 AM -2.2 °F -18.0 °F -9.4 °F 71% 30.15 in 10.0 mi NNE 9.2 mph - N/A   Overcast
6:15 AM -2.2 °F -14.2 °F -9.4 °F 71% 30.15 in 10.0 mi North 5.8 mph - N/A   Overcast
6:35 AM -2.2 °F -15.6 °F -9.4 °F 71% 30.15 in 10.0 mi NNE 6.9 mph - N/A   Overcast
6:55 AM -2.2 °F -14.2 °F -9.4 °F 71% 30.14 in 10.0 mi NNE 5.8 mph - N/A   Overcast
7:15 AM -2.2 °F -12.5 °F -9.4 °F 71% 30.15 in 10.0 mi NE 4.6 mph - N/A   Overcast
7:35 AM -0.4 °F - -9.4 °F 66% 30.15 in 10.0 mi Calm Calm - N/A   Overcast
7:55 AM -0.4 °F - -9.4 °F 66% 30.16 in 10.0 mi Calm Calm - N/A   Overcast
8:15 AM -0.4 °F - -9.4 °F 66% 30.16 in 10.0 mi Calm Calm - N/A   Overcast
8:35 AM -0.4 °F - -9.4 °F 66% 30.16 in 10.0 mi Calm Calm - N/A   Overcast
8:55 AM -0.4 °F - -9.4 °F 66% 30.16 in 10.0 mi Calm Calm - N/A   Overcast
9:15 AM -0.4 °F - -7.6 °F 72% 30.16 in 10.0 mi Calm Calm - N/A   Overcast
9:35 AM -0.4 °F -8.3 °F -7.6 °F 72% 30.16 in 10.0 mi SSE 3.5 mph - N/A   Overcast
9:55 AM 1.4 °F -6.2 °F -7.6 °F 66% 30.15 in 10.0 mi SSE 3.5 mph - N/A   Overcast
10:15 AM 1.4 °F -8.3 °F -5.8 °F 72% 30.15 in 10.0 mi SSE 4.6 mph - N/A   Overcast
10:35 AM 3.2 °F -6.2 °F -5.8 °F 66% 30.16 in 10.0 mi SSW 4.6 mph - N/A   Overcast
10:55 AM 3.2 °F -9.1 °F -4.0 °F 72% 30.15 in 10.0 mi SSW 6.9 mph - N/A   Overcast
11:15 AM 6.8 °F -4.8 °F -2.2 °F 67% 30.15 in 10.0 mi SW 6.9 mph - N/A   Overcast
11:35 AM 6.8 °F -4.8 °F -0.4 °F 72% 30.15 in 10.0 mi SW 6.9 mph - N/A   Overcast
11:55 AM 8.6 °F -3.7 °F 1.4 °F 73% 30.13 in 10.0 mi SW 8.1 mph - N/A   Overcast
12:15 PM 10.4 °F -1.5 °F 1.4 °F 67% 30.12 in 10.0 mi SW 8.1 mph - N/A   Overcast
12:35 PM 12.2 °F 0.7 °F 3.2 °F 67% 30.11 in 10.0 mi SSW 8.1 mph - N/A   Overcast
12:55 PM 12.2 °F 0.7 °F 6.8 °F 79% 30.10 in 10.0 mi SW 8.1 mph - N/A   Overcast
1:15 PM 14.0 °F 2.9 °F 6.8 °F 73% 30.09 in 10.0 mi SW 8.1 mph - N/A   Overcast
1:35 PM 15.8 °F 8.6 °F 10.4 °F 79% 30.08 in 8.0 mi SW 4.6 mph - N/A   Overcast
1:55 PM 17.6 °F 5.7 °F 12.2 °F 79% 30.06 in 3.0 mi West 10.4 mph - N/A   Overcast
2:15 PM 17.6 °F 8.2 °F 14.0 °F 86% 30.05 in 3.0 mi WSW 6.9 mph - N/A   Overcast
2:35 PM 19.4 °F 7.2 °F 15.8 °F 86% 30.04 in 10.0 mi West 11.5 mph 17.3 mph N/A   Overcast
2:55 PM 21.2 °F 4.2 °F 14.0 °F 74% 30.02 in 5.0 mi West 25.3 mph 31.1 mph N/A   Overcast
3:15 PM 19.4 °F 3.6 °F 14.0 °F 80% 30.03 in 9.0 mi West 19.6 mph 28.8 mph N/A   Overcast
3:35 PM 19.4 °F 4.1 °F 14.0 °F 80% 30.04 in 5.0 mi West 18.4 mph 28.8 mph N/A   Overcast
3:55 PM 19.4 °F 1.8 °F 12.2 °F 74% 30.02 in 8.0 mi West 25.3 mph 32.2 mph N/A   Overcast
4:15 PM 19.4 °F 3.6 °F 12.2 °F 74% 30.03 in 10.0 mi West 19.6 mph 28.8 mph N/A   Overcast
4:35 PM 19.4 °F 5.5 °F 12.2 °F 74% 30.04 in 10.0 mi West 15.0 mph 25.3 mph N/A   Overcast
4:55 PM 19.4 °F 4.1 °F 12.2 °F 74% 30.03 in 10.0 mi West 18.4 mph 29.9 mph N/A   Overcast
5:15 PM 19.4 °F 4.1 °F 12.2 °F 74% 30.04 in 10.0 mi West 18.4 mph 25.3 mph N/A   Overcast
5:35 PM 17.6 °F 0.5 °F 12.2 °F 79% 30.03 in 10.0 mi West 21.9 mph 29.9 mph N/A   Overcast
5:55 PM 17.6 °F 0.9 °F 12.2 °F 79% 30.02 in 8.0 mi West 20.7 mph 29.9 mph N/A   Overcast
6:15 PM 17.6 °F 2.7 °F 12.2 °F 79% 30.02 in 9.0 mi West 16.1 mph 19.6 mph N/A   Overcast
6:35 PM 17.6 °F 3.7 °F 14.0 °F 86% 30.02 in 10.0 mi West 13.8 mph - N/A   Overcast
6:55 PM 17.6 °F 3.2 °F 14.0 °F 86% 30.02 in 10.0 mi West 15.0 mph 20.7 mph N/A   Overcast
7:15 PM 17.6 °F 3.7 °F 14.0 °F 86% 30.01 in 10.0 mi West 13.8 mph 19.6 mph N/A   Overcast
7:35 PM 17.6 °F 4.3 °F 15.8 °F 93% 30.01 in 10.0 mi West 12.7 mph 18.4 mph N/A   Overcast
7:55 PM 17.6 °F 4.3 °F 15.8 °F 93% 30.00 in 10.0 mi West 12.7 mph 17.3 mph N/A   Overcast
8:15 PM 17.6 °F 2.7 °F 15.8 °F 93% 29.99 in 10.0 mi West 16.1 mph 21.9 mph N/A   Overcast
8:35 PM 17.6 °F 4.3 °F 15.8 °F 93% 29.99 in 10.0 mi WSW 12.7 mph 19.6 mph N/A   Overcast
8:55 PM 17.6 °F 1.3 °F 15.8 °F 93% 29.98 in 10.0 mi WSW 19.6 mph 24.2 mph N/A   Overcast
9:15 PM 17.6 °F 4.3 °F 15.8 °F 93% 29.97 in 3.0 mi WSW 12.7 mph 24.2 mph N/A   Overcast
9:35 PM 17.6 °F 4.3 °F 15.8 °F 93% 29.96 in 2.5 mi WSW 12.7 mph 25.3 mph N/A   Overcast
9:55 PM 17.6 °F 4.3 °F 15.8 °F 93% 29.96 in 3.0 mi WSW 12.7 mph 19.6 mph N/A   Overcast
10:15 PM 17.6 °F 2.2 °F 15.8 °F 93% 29.96 in 4.0 mi WSW 17.3 mph 24.2 mph N/A   Overcast
10:35 PM 17.6 °F 3.7 °F 14.0 °F 86% 29.95 in 8.0 mi WSW 13.8 mph 21.9 mph N/A   Overcast
10:55 PM 17.6 °F 2.2 °F 14.0 °F 86% 29.95 in 5.0 mi WSW 17.3 mph 24.2 mph N/A   Overcast
11:15 PM 17.6 °F 3.2 °F 15.8 °F 93% 29.95 in 6.0 mi West 15.0 mph 23.0 mph N/A   Overcast
11:35 PM 17.6 °F 4.3 °F 15.8 °F 93% 29.96 in 3.0 mi West 12.7 mph - N/A   Overcast
11:55 PM 17.6 °F 5.7 °F 15.8 °F 93% 29.96 in 4.0 mi West 10.4 mph - N/A   Overcast